Flag for U.S.A. Weather past 2 weeks in Bryan – College Station, Texas, U.S.A.

Now
76 °F

Sunny.


Feels Like: 77 °F
Forecast: 72 / 88 °F
Wind: 7 mph from Southwest

Location: Easterwood Field

Current Time: Apr 25, 2015 at 12:01:49 PM

Latest Report: Apr 25, 2015 at 10:53 AM


Visibility: 10 mi

Pressure: 29.76 "Hg

Humidity: 77%

Dew point: 68 °F

Location of Bryan – College StationLocation

Historic Weather in Bryan – College Station — Graph

°F

Bryan – College Station temperature yesterday

Maximum temperature yesterday: 85 °F (at 4:53 PM)
Minimum temperature yesterday: 68 °F (at 9:01 AM)
Average temperature yesterday: 77 °F

Past Weeks' High & Low Weather Summary

 TemperatureHumidityPressure
High85 °F (Apr 23, 4:53 PM)100% (Apr 19, 3:53 AM)30.16 "Hg (Apr 19, 3:53 AM)
Low53 °F (Apr 20, 6:53 AM)34% (Apr 20, 3:53 PM)29.67 "Hg (Apr 24, 7:53 PM)
Average70 °F78%29.91 "Hg
* Reported Apr 10 10:53 AM — Apr 25 10:53 AM, Bryan – College Station, Weather by CustomWeather, © 2015

Note: Actual official high and low records may vary slightly from our data, if they occured in-between our weather recording intervals... More about our weather records

Advertising

Bryan – College Station weather history for previous 24 hours

 ConditionsComfort  
Time TempWeatherWind HumidityBarometerVisibility
10:53 AM
Sat, Apr 25
76 °FSunny.7 mph77%29.76 "Hg10 mi
9:53 AM70 °FSunny.7 mph87%29.75 "Hg10 mi
8:53 AM70 °FSunny.6 mph90%29.77 "Hg10 mi
8:00 AM72 °FSunny.7 mph87%29.80 "Hg8 mi
6:53 AM74 °FLight rain. Fog.13 mph94%29.76 "Hg5 mi
5:53 AM74 °FLight rain. Fog.6 mph94%29.74 "Hg5 mi
4:53 AM73 °FFog.8 mph94%29.72 "Hg5 mi
3:53 AM74 °FFog.No wind91%29.72 "Hg6 mi
2:53 AM76 °FClear.6 mph85%29.72 "Hg7 mi
1:53 AM75 °FFog.8 mph90%29.75 "Hg6 mi
12:53 AM75 °FClear.7 mph90%29.69 "Hg7 mi
11:53 PM
Fri, Apr 24
76 °FPassing clouds.10 mph88%29.71 "Hg8 mi
10:53 PM76 °FClear.10 mph88%29.73 "Hg9 mi
9:53 PM77 °FClear.9 mph82%29.72 "Hg10 mi
8:53 PM77 °FSunny.8 mph82%29.69 "Hg10 mi
7:53 PM79 °FSunny.10 mph74%29.67 "Hg10 mi
6:53 PM81 °FSunny.13 mph70%29.69 "Hg10 mi
5:53 PM83 °FSunny.16 mph70%29.68 "Hg10 mi
4:53 PM85 °FScattered clouds.15 mph68%29.70 "Hg9 mi
3:53 PM81 °FLight rain. Broken clouds.9 mph82%29.73 "Hg8 mi
2:53 PM83 °FBroken clouds.12 mph74%29.76 "Hg9 mi
1:53 PM81 °FPartly sunny.13 mph74%29.79 "Hg8 mi
12:53 PM81 °FSunny.14 mph74%29.81 "Hg10 mi
Weather by CustomWeather, © 2015

See weather overviewHow to use our weather pages